[[{"header":{"parameterUnit":"m.s-1","parameterCategory":1,"la1":30.2991,"la2":30.254,"lo1":-89.0895,"lo2":-89.0444,"dy":0.0017,"dx":0.0017,"nx":28,"ny":28,"refTime":"2024-02-13T09:00:00:Z","depth":0,"parameterNumber":2,"parameterNumberName":"U-component_of_WINDS"},"data":[0,0,0,0,0,0,0,0,0,0,0,0,0,0,0,0,0,0,0,0,0,0,0,0,0,0,0,0,0,0,0,0,0,0,0,0,0,0,0,0,0,0,0,0,0,0,0,0,0,0,0,0,0,0,0,0,0,0,3.0001,3.0002,0,3.0124,3.0125,3.0127,3.0137,3.0136,3.0135,3.0134,3.026,3.0264,3.0269,0,0,0,0,0,0,0,0,0,0,0,0,0,2.9777,2.9781,3.0001,3.0002,3.0004,3.0124,3.0125,3.0127,3.0138,3.0136,3.0134,3.0133,3.0258,3.0264,3.0269,0,0,0,0,0,0,0,0,0,0,0,0,0,2.9885,2.9782,3.0001,3.0024,3.0027,3.0123,3.0125,3.0127,3.0138,3.0136,3.0134,3.0132,3.0256,3.0263,3.027,3.0352,0,0,3.0291,3.0294,0,0,0,0,0,0,0,0,2.9878,2.9893,3.0019,3.0022,3.0026,3.0113,3.0093,3.0203,3.0138,3.0096,3.0134,3.0131,3.0213,3.0223,3.025,3.0358,3.0363,3.0292,3.0296,3.0299,3.0301,0,0,0,0,0,0,0,2.9871,2.9888,3.0049,3.0021,3.0025,3.0028,3.0042,3.0114,3.0164,3.0099,3.01,3.0115,3.0214,3.0244,3.0253,3.0365,3.0291,3.0297,3.0302,3.0304,3.0547,3.055,0,0,0,0,0,0,2.9859,2.9881,3.0046,3.0053,2.9946,3.0034,3.0049,3.0087,3.0163,3.0173,3.0116,3.0115,3.0233,3.0245,3.0258,3.036,3.0299,3.0305,3.0309,3.0545,3.0548,3.055,0,0,0,0,0,0,2.9854,2.9874,3.0041,2.9968,2.9989,3.004,3.0083,3.0091,3.012,3.0176,3.0185,3.0137,3.0232,3.0248,3.0329,3.0364,3.0308,3.0314,3.0542,3.0546,3.0549,3.0563,0,0,0,0,0,0,2.9848,2.9872,2.9903,2.9968,2.9993,3.0109,3.0085,3.0095,3.0132,3.0131,3.0198,3.0207,3.0232,3.0318,3.0336,3.0372,3.032,3.0539,3.0544,3.0548,3.0559,3.0566,3.0572,0,0,0,0,0,2.984,2.9901,2.9904,2.9924,3.0033,3.0111,3.0125,3.0152,3.0135,3.0167,3.0203,3.0205,3.0358,3.0327,3.0346,3.0385,3.0537,3.0543,3.0548,3.0556,3.0565,3.0572,0,0,0,0,0,0,2.9838,2.991,2.9914,2.9999,3.0049,3.0112,3.0153,3.016,3.0216,3.0212,3.0244,3.0259,3.0339,3.037,3.0334,3.047,3.0446,3.0455,3.0446,3.0454,3.0461,3.0451,3.0325,0,0,0,0,0,2.9848,2.9905,2.9965,3.0034,3.0059,3.0102,3.0137,3.0154,3.0206,3.0227,3.0269,3.0321,3.0381,3.0419,3.0477,3.0564,3.058,3.0601,3.0608,3.0613,3.062,3.067,3.0681,3.0568,3.0568,3.0568,0,0,2.9868,2.9915,2.9948,3.0035,3.0075,3.0134,3.0119,3.0182,3.0226,3.0237,3.0316,3.0349,3.0408,3.0493,3.0532,3.0522,3.0655,3.062,3.0623,3.0628,3.0677,3.0687,3.0697,3.0571,3.0571,3.057,0,0,2.9935,2.9976,3.0038,3.008,3.0141,3.017,3.0185,3.0249,3.0271,3.035,3.036,3.0414,3.0516,3.0558,3.0593,3.0679,3.0683,3.0697,3.073,3.0779,3.0787,3.0796,3.0827,3.0837,3.0705,3.0705,3.0705,0,2.9952,3.0041,3.0069,3.0132,3.0171,3.0184,3.0248,3.0287,3.0364,3.0391,3.0378,3.0508,3.0549,3.0644,3.0665,3.0693,3.0712,3.0689,3.0784,3.0792,3.08,3.083,3.0842,3.0706,3.0706,3.0706,3.0706,0,3.006,3.0121,3.0165,3.024,3.0283,3.0346,3.0385,3.0425,3.0439,3.0469,3.0551,3.0601,3.067,3.0694,3.0708,3.0792,3.0784,3.0777,3.0754,3.0812,3.0841,3.0852,3.0708,3.0707,3.0707,3.0707,0,0,3.0128,3.0219,3.0234,3.0269,3.034,3.0388,3.0453,3.052,3.0555,3.0609,3.0664,3.0751,3.0746,3.0786,3.0805,3.0847,3.0913,3.0836,3.0838,3.0848,3.101,3.1014,3.1027,3.0917,3.0919,3.0921,3.1005,0,3.0203,3.0317,3.0346,3.0444,3.0502,3.0516,3.0573,3.0623,3.0653,3.0707,3.0742,3.0803,3.0791,3.0816,3.0858,3.0896,3.0946,3.089,3.0969,3.0971,3.0953,3.1042,3.1046,3.1123,3.1016,3.1018,3.102,0,3.0305,3.0362,3.0466,3.053,3.0555,3.0605,3.0671,3.0722,3.0779,3.0799,3.0844,3.086,3.0928,3.0902,3.0998,3.096,3.0994,3.1018,3.1021,3.1029,3.0998,3.1052,3.1149,3.116,3.1038,3.1036,3.1035,0,3.0345,3.0447,3.0523,3.0552,3.0629,3.0664,3.0697,3.0753,3.0792,3.085,3.0876,3.0941,3.0976,3.1026,3.1059,3.1037,3.1153,3.1129,3.1171,3.117,3.1194,3.1192,3.1297,3.1217,3.1216,3.1216,3.1216,0,3.0425,3.0488,3.0542,3.0588,3.066,3.0693,3.0763,3.0797,3.0847,3.0901,3.0918,3.0968,3.1009,3.1065,3.1092,3.1167,3.1183,3.1201,3.1208,3.12,3.1198,3.1222,3.1218,3.1219,3.1219,3.1218,3.1218,0,3.0481,3.0519,3.0603,3.0669,3.0687,3.0737,3.0794,3.0841,3.0873,3.0941,3.0959,3.1009,3.1077,3.1115,3.12,3.1217,3.1302,3.1306,3.1283,3.1285,3.1326,3.1321,3.145,3.1469,3.1376,3.1376,3.1377,0,3.053,3.0579,3.0651,3.0688,3.0722,3.0783,3.0823,3.0858,3.09,3.097,3.1008,3.1077,3.1134,3.1241,3.1286,3.1351,3.1356,3.1397,3.1366,3.1357,3.1357,3.1354,3.1359,3.1402,3.1403,3.1403,3.1404,0,3.0612,3.0629,3.0687,3.0752,3.08,3.0853,3.0906,3.0936,3.098,3.1026,3.1095,3.1139,3.1227,3.1295,3.1365,3.14,3.141,3.1414,3.1427,3.1419,3.1404,3.1413,3.1297,3.141,3.141,3.1409,3.1409,3.1409,3.0666,3.0711,3.0769,3.0833,3.0877,3.0926,3.0973,3.1011,3.107,3.1143,3.1161,3.1234,3.1292,3.1387,3.1424,3.1483,3.1475,3.1494,3.1499,3.1504,3.1505,3.1395,3.1496,3.1495,3.1495,3.1495,3.1495,0,3.075,3.0788,3.0847,3.0921,3.0972,3.0977,3.1036,3.1078,3.1143,3.1196,3.1252,3.1332,3.1399,3.145,3.1518,3.1555,3.1562,3.1572,3.157,3.1578,3.1508,3.1489,3.1566,3.1566,3.1566,3.1566,3.1566,3.1566,3.0799,3.0876,3.09,3.0998,3.1037,3.1109,3.1142,3.1188,3.1231,3.132,3.1376,3.1408,3.1461,3.1534,3.1596,3.1609,3.1634,3.1644,3.1657,3.159,3.1583,3.1575,3.1558,3.1649,3.1649,3.1723,3.1724,3.1724]},{"header":{"parameterUnit":"m.s-1","parameterCategory":1,"la1":30.2991,"la2":30.254,"lo1":-89.0895,"lo2":-89.0444,"dy":0.0017,"dx":0.0017,"nx":28,"ny":28,"refTime":"2024-02-13T09:00:00:Z","depth":0,"parameterNumber":3,"parameterNumberName":"V-component_of_WINDS"},"data":[0,0,0,0,0,0,0,0,0,0,0,0,0,0,0,0,0,0,0,0,0,0,0,0,0,0,0,0,0,0,0,0,0,0,0,0,0,0,0,0,0,0,0,0,0,0,0,0,0,0,0,0,0,0,0,0,0,0,-5.6781,-5.6782,0,-5.6887,-5.6888,-5.6889,-5.685,-5.6847,-5.6845,-5.6843,-5.6948,-5.6953,-5.6958,0,0,0,0,0,0,0,0,0,0,0,0,0,-5.6541,-5.6545,-5.6781,-5.6782,-5.6783,-5.6887,-5.6888,-5.689,-5.685,-5.6847,-5.6844,-5.6842,-5.6946,-5.6952,-5.6958,0,0,0,0,0,0,0,0,0,0,0,0,0,-5.6646,-5.6547,-5.678,-5.6776,-5.6777,-5.6886,-5.6888,-5.689,-5.6851,-5.6847,-5.6843,-5.684,-5.6944,-5.6951,-5.6959,-5.7078,0,0,-5.6982,-5.6985,0,0,0,0,0,0,0,0,-5.664,-5.6655,-5.6775,-5.6777,-5.6778,-5.6851,-5.6842,-5.6953,-5.6852,-5.6823,-5.6843,-5.6838,-5.6918,-5.6928,-5.6956,-5.7083,-5.7087,-5.6983,-5.6987,-5.6991,-5.6993,0,0,0,0,0,0,0,-5.6633,-5.665,-5.6822,-5.6777,-5.6779,-5.6768,-5.6779,-5.6863,-5.6889,-5.6825,-5.6822,-5.6836,-5.6918,-5.6948,-5.6958,-5.7089,-5.6983,-5.6989,-5.6994,-5.6997,-5.7319,-5.7323,0,0,0,0,0,0,-5.6625,-5.6644,-5.6819,-5.6826,-5.6699,-5.6775,-5.6787,-5.6831,-5.6888,-5.6894,-5.6839,-5.6833,-5.6937,-5.6949,-5.6961,-5.7104,-5.6991,-5.6998,-5.7002,-5.7315,-5.732,-5.7324,0,0,0,0,0,0,-5.662,-5.6641,-5.6815,-5.6734,-5.6756,-5.6783,-5.6833,-5.6835,-5.6865,-5.6899,-5.6903,-5.6865,-5.6935,-5.6951,-5.7049,-5.7107,-5.7001,-5.7008,-5.731,-5.7316,-5.7322,-5.7391,0,0,0,0,0,0,-5.6614,-5.664,-5.6686,-5.6736,-5.676,-5.6902,-5.6836,-5.684,-5.6879,-5.6873,-5.6924,-5.6929,-5.6933,-5.7038,-5.7057,-5.7116,-5.7014,-5.7305,-5.7313,-5.732,-5.7384,-5.7399,-5.7411,0,0,0,0,0,-5.6605,-5.67,-5.6688,-5.671,-5.6818,-5.6906,-5.692,-5.6923,-5.6884,-5.693,-5.6951,-5.6928,-5.7098,-5.7049,-5.7069,-5.7131,-5.7301,-5.7311,-5.732,-5.7377,-5.7396,-5.7411,0,0,0,0,0,0,-5.6655,-5.6707,-5.6694,-5.6808,-5.6853,-5.6899,-5.6957,-5.6942,-5.6998,-5.699,-5.6992,-5.7003,-5.7105,-5.7128,-5.7072,-5.7249,-5.7194,-5.7207,-5.7231,-5.7248,-5.7262,-5.7254,-5.702,0,0,0,0,0,-5.668,-5.6748,-5.6788,-5.6885,-5.6909,-5.6929,-5.6967,-5.6967,-5.7012,-5.7031,-5.7059,-5.7104,-5.7168,-5.7209,-5.727,-5.7387,-5.7397,-5.744,-5.7454,-5.7465,-5.7476,-5.754,-5.7559,-5.7354,-5.7354,-5.7354,0,0,-5.6731,-5.6767,-5.681,-5.6896,-5.6931,-5.7,-5.6945,-5.7021,-5.7072,-5.7042,-5.7137,-5.716,-5.721,-5.7318,-5.7368,-5.7341,-5.7536,-5.7477,-5.7485,-5.7491,-5.7551,-5.7571,-5.7588,-5.736,-5.7359,-5.7358,0,0,-5.6859,-5.6894,-5.6978,-5.7014,-5.7068,-5.7081,-5.7102,-5.715,-5.7165,-5.7261,-5.724,-5.73,-5.741,-5.7446,-5.7479,-5.7622,-5.7602,-5.7642,-5.7714,-5.7776,-5.7792,-5.7806,-5.7857,-5.7875,-5.7653,-5.7653,-5.7653,0,-5.6915,-5.7019,-5.7023,-5.7101,-5.7139,-5.7117,-5.7202,-5.7237,-5.7307,-5.7333,-5.7303,-5.744,-5.7472,-5.7589,-5.7624,-5.7651,-5.7674,-5.7635,-5.7789,-5.7804,-5.7817,-5.7865,-5.7884,-5.7658,-5.7657,-5.7657,-5.7656,0,-5.7086,-5.7158,-5.722,-5.729,-5.7335,-5.7416,-5.7431,-5.7477,-5.7472,-5.7489,-5.7587,-5.7625,-5.7692,-5.772,-5.7716,-5.7837,-5.7818,-5.7789,-5.7732,-5.7841,-5.7886,-5.7905,-5.7664,-5.7662,-5.7661,-5.766,0,0,-5.7247,-5.7319,-5.7341,-5.7373,-5.7431,-5.7487,-5.7567,-5.7634,-5.7673,-5.7722,-5.7788,-5.7882,-5.7856,-5.7893,-5.7893,-5.7947,-5.8058,-5.7911,-5.7912,-5.7936,-5.8193,-5.8214,-5.8235,-5.8046,-5.8049,-5.8052,-5.8188,0,-5.7379,-5.7521,-5.7527,-5.7655,-5.7722,-5.7702,-5.7772,-5.7814,-5.7832,-5.7891,-5.7909,-5.7976,-5.7936,-5.7958,-5.8012,-5.8033,-5.8109,-5.8024,-5.8106,-5.8109,-5.8094,-5.8259,-5.8282,-5.8409,-5.8206,-5.8209,-5.8211,0,-5.7552,-5.7609,-5.7744,-5.7793,-5.7821,-5.7884,-5.7946,-5.8003,-5.8051,-5.8059,-5.8102,-5.8094,-5.8175,-5.8117,-5.8228,-5.8169,-5.8204,-5.8219,-5.8224,-5.8231,-5.8166,-5.827,-5.8449,-5.8468,-5.8239,-5.8237,-5.8235,0,-5.7656,-5.7765,-5.7861,-5.7888,-5.7948,-5.7992,-5.8019,-5.8063,-5.8104,-5.8158,-5.8184,-5.8247,-5.8281,-5.8329,-5.8338,-5.8295,-5.8449,-5.8392,-5.8458,-5.8457,-5.849,-5.8488,-5.8677,-5.8514,-5.8513,-5.8513,-5.8513,0,-5.7803,-5.7886,-5.7908,-5.7966,-5.8059,-5.8065,-5.8157,-5.818,-5.822,-5.8282,-5.8268,-5.8326,-5.8335,-5.8395,-5.8402,-5.8493,-5.8508,-5.8517,-5.8518,-5.8518,-5.8517,-5.854,-5.8531,-5.8518,-5.8517,-5.8516,-5.8515,0,-5.7933,-5.7952,-5.8054,-5.8103,-5.8117,-5.8183,-5.8224,-5.828,-5.8296,-5.8375,-5.8393,-5.8419,-5.8489,-5.8503,-5.8586,-5.8591,-5.8698,-5.8691,-5.8683,-5.8681,-5.8746,-5.874,-5.8956,-5.8984,-5.8803,-5.8805,-5.8807,0,-5.8025,-5.8089,-5.8145,-5.8186,-5.8216,-5.8282,-5.8324,-5.8332,-5.8375,-5.8435,-5.8484,-5.8553,-5.8608,-5.8721,-5.8746,-5.8809,-5.8802,-5.8874,-5.8812,-5.881,-5.8803,-5.8798,-5.8805,-5.8885,-5.8887,-5.8889,-5.889,0,-5.8187,-5.8193,-5.8254,-5.8318,-5.8369,-5.842,-5.8468,-5.8502,-5.8517,-5.8566,-5.8639,-5.8682,-5.8767,-5.8835,-5.8899,-5.8924,-5.891,-5.891,-5.8928,-5.8929,-5.8921,-5.8925,-5.8714,-5.8905,-5.8903,-5.8902,-5.8901,-5.8901,-5.83,-5.8356,-5.8405,-5.8473,-5.8511,-5.8556,-5.8611,-5.8635,-5.8696,-5.8767,-5.8768,-5.8847,-5.8893,-5.8976,-5.9007,-5.9068,-5.9045,-5.9072,-5.9079,-5.9085,-5.9091,-5.8912,-5.9079,-5.9079,-5.9079,-5.9078,-5.9078,0,-5.846,-5.8491,-5.8554,-5.8623,-5.8676,-5.866,-5.8712,-5.8758,-5.8828,-5.8873,-5.8928,-5.9011,-5.9078,-5.9109,-5.9174,-5.9217,-5.9212,-5.9234,-5.923,-5.9236,-5.9108,-5.9085,-5.9237,-5.9237,-5.9237,-5.9237,-5.9237,-5.9237,-5.855,-5.8644,-5.8656,-5.8768,-5.8797,-5.8875,-5.8907,-5.8949,-5.8985,-5.9078,-5.9134,-5.9155,-5.9194,-5.9262,-5.9322,-5.9329,-5.9354,-5.9379,-5.9383,-5.9262,-5.9245,-5.923,-5.9209,-5.9384,-5.9384,-5.9506,-5.9508,-5.9508]}]]